Location: Croissy-Beaubourg
(48.8283°N, 2.6696°E)
Time: 22:36:45
(UTC+00:00)

USA 215 - Visible Passes

Search period start: 02 December 2023 00:00
Search period end: 12 December 2023 00:00
Orbit: 1098 x 1109 km, 123.0° (Epoch: 17 November)

Date Brightness Start Highest point End Pass type
(mag) Time Alt. Az. Time Alt. Az. Time Alt. Az.
02 Dec 5.1 03:48:36 10° ENE 03:53:40 23° SE 03:58:42 10° S visible
02 Dec 3.4 05:30:53 10° ENE 05:37:26 74° SE 05:43:56 10° SW visible
03 Dec 5.8 03:08:58 10° ESE 03:10:11 11° ESE 03:11:24 10° SE visible
03 Dec 4.3 04:48:13 10° ENE 04:54:24 44° SE 05:00:34 10° SSW visible
03 Dec 3.3 06:31:11 10° NE 06:37:42 75° NNW 06:44:12 10° WSW visible
04 Dec 5.2 04:06:05 10° ENE 04:11:09 24° SE 04:16:12 10° S visible
04 Dec 3.5 05:48:21 10° ENE 05:54:54 74° SE 06:01:25 10° SW visible
05 Dec 5.9 03:26:21 10° ESE 03:27:40 11° ESE 03:28:59 10° SE visible
05 Dec 4.3 05:05:42 10° ENE 05:11:53 44° SE 05:18:03 10° SSW visible
06 Dec 5.2 04:23:33 10° ENE 04:28:38 24° SE 04:33:42 10° S visible
06 Dec 3.5 06:05:50 10° ENE 06:12:23 74° SE 06:18:54 10° SW visible
07 Dec 5.9 03:43:44 10° ESE 03:45:09 11° ESE 03:46:34 10° SE visible
07 Dec 4.3 05:23:10 10° ENE 05:29:22 44° SE 05:35:32 10° SSW visible
08 Dec 5.3 04:41:01 10° ENE 04:46:08 24° SE 04:51:12 10° S visible
08 Dec 3.5 06:23:19 10° ENE 06:29:52 75° SE 06:36:23 10° SW visible
09 Dec 6.0 04:01:08 10° ESE 04:02:39 11° ESE 04:04:08 10° SE visible
09 Dec 4.4 05:40:39 10° ENE 05:46:51 44° SE 05:53:02 10° SSW visible
10 Dec 5.4 04:58:30 10° ENE 05:03:37 24° SE 05:08:42 10° S visible
10 Dec 3.6 06:40:48 10° ENE 06:47:21 75° SE 06:53:52 10° SW visible
11 Dec 6.1 04:18:33 10° ESE 04:20:08 11° ESE 04:21:43 10° SE visible
11 Dec 4.4 05:58:08 10° ENE 06:04:21 44° SE 06:10:31 10° SSW visible
